Redmond, OR

11:55 PM PDT on May 23, 2018 (GMT -0700)
Roberts Field Airport

Weather History for KRDM - October, 2013

Change the Weather History Date:

Thursday, October 24, 2013

  Actual Average Record
Temperature  
Mean Temperature 47 °F 45 °F  
Max Temperature 68 °F 60 °F 85 °F (1968)
Min Temperature 26 °F 30 °F 15 °F (2002)
Degree Days  
Heating Degree Days 18 20  
Month to date heating degree days 497 396  
Since 1 July heating degree days 763 795  
Cooling Degree Days 0 0  
Month to date cooling degree days 0 0  
Year to date cooling degree days 350 222  
Moisture  
Dew Point 35 °F    
Average Humidity 62    
Maximum Humidity 92    
Minimum Humidity 32    
Precipitation  
Precipitation 0.00 in 0.03 in 0.64 in (2010)
Month to date precipitation 0.05 0.46  
Year to date precipitation 4.14 6.60  
Sea Level Pressure  
Sea Level Pressure 30.11 in    
Wind  
Wind Speed 3 mph (SW)    
Max Wind Speed 10 mph    
Max Gust Speed 13 mph    
Visibility 10 miles    
Events      
T = Trace of Precipitation, MM = Missing Value Source: NWS Daily Summary

Daily Weather History Graph

Daily Weather History Graph

Search for Another Location

Airport or City:

Astronomy

Oct. 24, 2013 Rise Set
Actual Time 7:31 AM PDT 6:05 PM PDT
Civil Twilight 7:01 AM PDT 6:35 PM PDT
Nautical Twilight 6:27 AM PDT 7:08 PM PDT
Astronomical Twilight 5:54 AM PDT 7:42 PM PDT
Moon 10:30 PM PDT 12:40 PM PDT
Length of Visible Light 11h 33m
Length of Day
10h 33m
Waning Gibbous, 70% of the Moon is Illuminated
Oct 24
Waning Gibbous
Oct 26
Last Quarter
Nov 3
New
Nov 9
First Quarter
Nov 17
Full

Hourly Weather History & Observations

Time (PDT) Temp. Windchill Dew Point Humidity Pressure Visibility Wind Dir Wind Speed Gust Speed Precip Events Conditions
12:56 AM 37.0 °F 33.3 °F 32.0 °F 82% 30.11 in 10.0 mi SSE 4.6 mph - N/A   Clear
1:56 AM 36.0 °F - 32.0 °F 86% 30.11 in 10.0 mi Calm Calm - N/A   Clear
2:56 AM 30.9 °F - 28.0 °F 89% 30.12 in 10.0 mi Calm Calm - N/A   Clear
3:56 AM 28.0 °F - 26.1 °F 92% 30.12 in 10.0 mi Calm Calm - N/A   Clear
4:56 AM 32.0 °F 27.5 °F 28.9 °F 88% 30.11 in 10.0 mi SSE 4.6 mph - N/A   Clear
5:56 AM 30.0 °F - 28.9 °F 96% 30.12 in 10.0 mi Calm Calm - N/A   Clear
6:56 AM 30.0 °F 25.2 °F 28.9 °F 96% 30.13 in 10.0 mi SE 4.6 mph - N/A   Clear
7:56 AM 28.0 °F - 26.1 °F 92% 30.14 in 10.0 mi Calm Calm - N/A   Clear
8:56 AM 39.9 °F 35.8 °F 34.0 °F 79% 30.14 in 10.0 mi SSE 5.8 mph - N/A   Clear
9:56 AM 46.0 °F - 36.0 °F 68% 30.14 in 10.0 mi Calm Calm - N/A   Clear
10:56 AM 52.0 °F - 37.9 °F 59% 30.14 in 10.0 mi Calm Calm - N/A   Clear
11:56 AM 57.0 °F - 39.0 °F 51% 30.12 in 10.0 mi Calm Calm - N/A   Clear
12:56 PM 63.0 °F - 37.9 °F 40% 30.09 in 10.0 mi Variable 3.5 mph - N/A   Clear
1:56 PM 64.9 °F - 39.0 °F 39% 30.06 in 10.0 mi NW 5.8 mph - N/A   Clear
2:56 PM 68.0 °F - 37.9 °F 33% 30.05 in 10.0 mi Variable 5.8 mph - N/A   Clear
3:56 PM 68.0 °F - 37.0 °F 32% 30.05 in 10.0 mi NNW 6.9 mph - N/A   Clear
4:56 PM 64.9 °F - 41.0 °F 42% 30.05 in 10.0 mi NNW 9.2 mph - N/A   Clear
5:56 PM 60.1 °F - 41.0 °F 49% 30.07 in 10.0 mi NW 6.9 mph - N/A   Clear
6:56 PM 55.0 °F - 39.9 °F 57% 30.09 in 10.0 mi WNW 5.8 mph - N/A   Clear
7:56 PM 52.0 °F - 39.9 °F 63% 30.12 in 10.0 mi WNW 5.8 mph - N/A   Clear
8:56 PM 48.9 °F - 37.9 °F 66% 30.12 in 10.0 mi SW 4.6 mph - N/A   Clear
9:56 PM 42.1 °F 39.2 °F 36.0 °F 79% 30.14 in 10.0 mi South 4.6 mph - N/A   Clear
10:56 PM 41.0 °F - 35.1 °F 79% 30.14 in 10.0 mi Calm Calm - N/A   Clear
11:56 PM 41.0 °F 39.0 °F 35.1 °F 79% 30.14 in 10.0 mi South 3.5 mph - N/A   Clear